Weather History for Scappoose, OR

Change the Weather History Date:

Tuesday, November 5, 2013

  Actual Average Record
Temperature  
Mean Temperature 50 °F -  
Max Temperature 55 °F - 63 °F (2012)
Min Temperature 46 °F - 26 °F (2003)
Degree Days  
Heating Degree Days 14    
Month to date heating degree days 85  
Since 1 July heating degree days 655  
Cooling Degree Days 0    
Month to date cooling degree days 0  
Year to date cooling degree days 396  
Moisture  
Dew Point 47 °F    
Average Humidity 89    
Maximum Humidity 100    
Minimum Humidity 77    
Precipitation  
Precipitation 0.01 in - 1.18 in (2006)
Month to date precipitation 0.93  
Year to date precipitation 23.44  
Sea Level Pressure  
Sea Level Pressure 30.16 in    
Wind  
Wind Speed 3 mph (South)    
Max Wind Speed 10 mph    
Max Gust Speed 14 mph    
Visibility 8 miles    
Events Rain    
T = Trace of Precipitation, MM = Missing Value Source: NWS Daily Summary

Daily Weather History Graph

Daily Weather History Graph

Search for Another Location

Airport:

Trip Planner

Search our weather history database for the weather conditions in past years. The results will help you decide how hot, cold, wet, or windy it might be!

Date:

Astronomy

Nov. 05, 2013 Rise Set
Actual Time 6:57 AM PST 4:51 PM PST
Civil Twilight 6:26 AM PST 5:23 PM PST
Nautical Twilight 5:50 AM PST 5:58 PM PST
Astronomical Twilight 5:16 AM PST 6:33 PM PST
Moon 9:22 AM PST (11/5) 6:54 PM PST (11/5)
Length of Visible Light 10h 57m
Length of Day
9h 54m
Waxing Crescent, 7% of the Moon is Illuminated
Nov 5
Waxing Crescent
Nov 9
First Quarter
Nov 17
Full
Nov 25
Last Quarter
Dec 2
New

Hourly Weather History & Observations

Time (PST) Temp. Dew Point Humidity Pressure Visibility Wind Dir Wind Speed Gust Speed Precip Events Conditions
12:53 AM 46.9 °F 45.0 °F 93% 30.10 in 4.0 mi SE 9.2 mph - N/A   Overcast
1:53 AM 46.9 °F 46.0 °F 97% 30.09 in 5.0 mi ESE 8.1 mph - N/A   Overcast
2:53 AM 48.0 °F 46.0 °F 93% 30.09 in 5.0 mi SE 5.8 mph - 0.00 in   Overcast
3:11 AM 48.0 °F 46.0 °F 93% 30.08 in 7.0 mi SE 5.8 mph - 0.00 in Rain Light Rain
3:53 AM 48.9 °F 46.9 °F 93% 30.09 in 10.0 mi SE 5.8 mph - 0.00 in Rain Light Rain
4:53 AM 48.9 °F 46.9 °F 93% 30.09 in 10.0 mi SE 6.9 mph - 0.01 in   Overcast
5:53 AM 48.9 °F 46.9 °F 93% 30.09 in 10.0 mi SSE 4.6 mph - 0.00 in   Overcast
6:53 AM 50.0 °F 46.9 °F 89% 30.10 in 10.0 mi SSE 5.8 mph - N/A   Overcast
7:53 AM 50.0 °F 46.9 °F 89% 30.12 in 10.0 mi SSE 3.5 mph - N/A   Overcast
8:53 AM 51.1 °F 48.0 °F 89% 30.13 in 10.0 mi SE 3.5 mph - N/A   Overcast
9:53 AM 52.0 °F 48.0 °F 86% 30.14 in 10.0 mi Calm Calm - N/A   Overcast
10:11 AM 53.1 °F 48.0 °F 83% 30.14 in 10.0 mi SSW 3.5 mph - N/A   Overcast
10:30 AM 53.1 °F 48.0 °F 83% 30.14 in 10.0 mi Calm Calm - N/A   Overcast
10:53 AM 53.1 °F 48.0 °F 83% 30.14 in 10.0 mi Calm Calm - N/A   Overcast
11:53 AM 52.0 °F 48.0 °F 86% 30.14 in 10.0 mi WSW 4.6 mph - N/A   Overcast
12:40 PM 52.0 °F 48.0 °F 86% 30.14 in 10.0 mi Calm Calm - 0.00 in Rain Light Rain
12:53 PM 52.0 °F 48.9 °F 89% 30.14 in 10.0 mi South 4.6 mph - 0.00 in   Overcast
1:03 PM 52.0 °F 48.9 °F 89% 30.14 in 9.0 mi South 3.5 mph - N/A   Overcast
1:13 PM 53.1 °F 50.0 °F 89% 30.15 in 9.0 mi SSW 4.6 mph - 0.00 in Rain Light Rain
1:26 PM 53.1 °F 48.9 °F 86% 30.15 in 10.0 mi South 3.5 mph - 0.00 in   Overcast
1:53 PM 54.0 °F 50.0 °F 86% 30.15 in 10.0 mi SE 3.5 mph - 0.00 in   Overcast
2:53 PM 55.0 °F 48.9 °F 80% 30.15 in 10.0 mi SE 3.5 mph - N/A   Mostly Cloudy
3:53 PM 55.0 °F 50.0 °F 83% 30.17 in 10.0 mi Calm Calm - N/A   Overcast
4:53 PM 53.1 °F 48.9 °F 86% 30.18 in 10.0 mi Calm Calm - N/A   Partly Cloudy
5:53 PM 46.9 °F 46.0 °F 97% 30.20 in 4.0 mi WSW 4.6 mph - N/A   Mostly Cloudy
6:23 PM 48.9 °F 46.9 °F 93% 30.21 in 8.0 mi WNW 3.5 mph - N/A   Overcast
6:43 PM 48.9 °F 46.9 °F 93% 30.21 in 8.0 mi NW 3.5 mph - N/A   Mostly Cloudy
6:53 PM 46.9 °F 45.0 °F 93% 30.21 in 7.0 mi West 3.5 mph - N/A   Mostly Cloudy
7:02 PM 48.0 °F 46.0 °F 93% 30.21 in 7.0 mi Calm Calm - N/A   Mostly Cloudy
7:12 PM 48.0 °F 46.0 °F 93% 30.21 in 8.0 mi NW 3.5 mph - N/A   Scattered Clouds
7:36 PM 46.9 °F 45.0 °F 93% 30.22 in 5.0 mi Calm Calm - N/A   Mostly Cloudy
7:53 PM 46.9 °F 46.0 °F 97% 30.22 in 7.0 mi Calm Calm - N/A   Overcast
8:18 PM 48.0 °F 46.0 °F 93% 30.23 in 6.0 mi Calm Calm - N/A   Overcast
8:53 PM 48.0 °F 46.0 °F 93% 30.23 in 6.0 mi Calm Calm - N/A   Overcast
9:53 PM 48.0 °F 46.0 °F 93% 30.24 in 6.0 mi Calm Calm - N/A   Overcast
10:53 PM 48.9 °F 46.9 °F 93% 30.25 in 5.0 mi Calm Calm - N/A   Overcast
11:53 PM 48.0 °F 46.9 °F 96% 30.25 in 6.0 mi Calm Calm - N/A   Overcast